Location: Aranbee
(34.0885°N, 118.2342°W)
Time: 13:12:38
(UTC+00:00)

Tiros 1 - Pass Details

Date: 26 November 2020
Orbit: 630 x 663 km, 48.4° (Epoch: 21 January)

Event Time Altitude Azimuth Distance (km) Brightness Sun altitude
Rises 04:24:12 0° 312° (NW) 2,976 11.1 -45.1°
Enters shadow 04:24:23 - 313° (NW) 2,913 11.0 -45.1°
Reaches altitude 10° 04:27:14 10° 332° (NNW) 2,057 - -45.7°
Maximum altitude 04:30:30 18° 15° (NNE) 1,579 - -46.4°
Drops below altitude 10° 04:33:44 10° 59° (ENE) 2,040 - -47.0°
Sets 04:36:44 0° 79° (ENE) 2,941 - -47.7°
